This is the latest recevied weather packets stored in our database for station/object JS1SZZ-13. If no packets are shown the sender has not sent any weather packets the latest 1 day(s).
| Time | Temp. | Humidity | Pressure | Rain* | Wind** | Luminosity | Snow |
|---|---|---|---|---|---|---|---|
| 1777970100 | 18.89° C | 29% | 1017 hPa | 0 mm | 0 m/s | - | - |
| 1777969199 | 18.89° C | 27% | 1016.8 hPa | 0 mm | 0 m/s | - | - |
| 1777968300 | 20° C | 22% | 1016.6 hPa | 0 mm | 0 m/s | - | - |
| 1777967401 | 20.56° C | 19% | 1016.6 hPa | 0 mm | 0 m/s | - | - |
| 1777966500 | 21.67° C | 20% | 1016.5 hPa | 0 mm | 0 m/s | - | - |
| 1777965599 | 20° C | 19% | 1016.1 hPa | 0 mm | 0 m/s | - | - |
| 1777964699 | 20° C | 20% | 1016 hPa | 0 mm | 0 m/s | - | - |
| 1777963800 | 20° C | 21% | 1015.6 hPa | 0 mm | 0 m/s | - | - |
| 1777962900 | 20° C | 19% | 1015.7 hPa | 0 mm | 0 m/s | - | - |
| 1777961999 | 20° C | 20% | 1015.8 hPa | 0 mm | 0 m/s | - | - |
| 1777961100 | 20° C | 20% | 1015.6 hPa | 0 mm | 0 m/s | - | - |
| 1777960200 | 20° C | 22% | 1015.4 hPa | 0 mm | 0 m/s | - | - |
| 1777959299 | 20° C | 20% | 1015.7 hPa | 0 mm | 0 m/s | - | - |
| 1777958399 | 20° C | 20% | 1015.7 hPa | 0 mm | 0 m/s | - | - |
| 1777957499 | 18.89° C | 22% | 1016 hPa | 0 mm | 0 m/s | - | - |
| 1777956601 | 20° C | 21% | 1016 hPa | 0 mm | 0 m/s | - | - |
| 1777955700 | 20° C | 21% | 1016.2 hPa | 0 mm | 0 m/s | - | - |
| 1777954799 | 20° C | 20% | 1016.2 hPa | 0 mm | 0 m/s | - | - |
| 1777953901 | 20° C | 20% | 1016.1 hPa | 0 mm | 0 m/s | - | - |
| 1777952999 | 20° C | 23% | 1016.4 hPa | 0 mm | 0 m/s | - | - |
| 1777952100 | 18.89° C | 20% | 1016.4 hPa | 0 mm | 0 m/s | - | - |
| 1777951200 | 20° C | 27% | 1016.5 hPa | 0 mm | 0 m/s | - | - |
| 1777950299 | 18.89° C | 22% | 1016.5 hPa | 0 mm | 0 m/s | - | - |
| 1777949400 | 18.89° C | 22% | 1016.8 hPa | 0 mm | 0 m/s | - | - |
* Rain latest hour (hover to see other rain measurements)
** Current wind speed in m/s (hover to see current wind gust speed)